Regional Weather Roundup
Issued by NWS Goodland, KS

Home | Current Version | Previous Version | Graphics & Text | Print | Product List | Glossary On
Versions: 1 2 3 4 5 6 7 8 9 10 11 12 13 14 15 16 17 18 19 20 21 22 23 24 25 26 27 28 29 30 31 32 33 34 35 36 37 38 39 40 41 42 43 44 45 46 47 48 49 50
000
ASUS43 KGLD 160708
RWRGLD

GOODLAND FORECAST AREA HOURLY WEATHER ROUNDUP
NATIONAL WEATHER SERVICE GOODLAND KS
100 AM MDT TUE SEP 16 2014

...OFFICIAL OBSERVATIONS...

CITY           SKY/WX    TMP DP  RH WIND       PRES   REMARKS
GOODLAND KS    CLOUDY    53  51  93 S10       30.27F
HILL CITY KS   CLEAR     45  42  89 CALM      30.27S
IMPERIAL NEB   CLEAR     50  43  77 S9        30.23F
MCCOOK NEB     CLEAR     50  43  77 SE8       30.25F
AKRON CO       CLEAR     53  50  89 S10       30.22F
BURLINGTON CO  CLOUDY    59  51  75 S14       30.26F
LIMON CO       CLOUDY    53  51  93 S12G21    30.30F
$$

...UNOFFICIAL OBSERVATIONS...

CITY           SKY/WX    TMP DP  RH WIND       PRES   REMARKS
COLBY KS       CLEAR     54  50  87 S8        30.27S
GOVE KS          N/A     50  32  50 MISG        N/A
NORTON KS      CLEAR     48  39  71 SE5       30.26S
SHARON SPRINGS   N/A     59  55  85 S6          N/A
WAKEENEY KS      N/A     49  42  76 MISG        N/A
TRENTON NEB      N/A     48  32  54 SE8         N/A
YUMA CO          N/A     54  51  89 S12         N/A
$$



USA.gov is the U.S. government's official web portal to all federal, state and local government web resources and services.